• In Latvia
  • List of Countries
  • For 7 days
  • Water Temperature
  • Satellite Maps
  • Weather Map
  • Weather Widgets
  • user-avatar
    Login

    Hourly Weather Solden

    Today, 28 June, Wednesday

    Time Temperature Precipitation Wind Pressure Humidity
    00:00 +8°C° 0.1 mm 1 mps 579 mmHg 96%
    01:00 +7°C° 0 mm 2 mps 579 mmHg 95%
    02:00 +7°C° 0.2 mm 2 mps 579 mmHg 95%
    03:00 +7°C° 0.2 mm 2 mps 578 mmHg 95%
    04:00 +8°C° 0.2 mm 1 mps 578 mmHg 95%
    05:00 +7°C° 0.2 mm 2 mps 578 mmHg 93%
    06:00 +8°C° 0.2 mm 2 mps 579 mmHg 90%
    07:00 +9°C° 0 mm 2 mps 579 mmHg 88%
    08:00 +10°C° 0.5 mm 2 mps 579 mmHg 84%
    09:00 +12°C° 0.5 mm 2 mps 579 mmHg 80%
    10:00 +12°C° 0.5 mm 3 mps 580 mmHg 76%
    11:00 +12°C° 0.7 mm 3 mps 580 mmHg 75%
    12:00 +12°C° 0.7 mm 3 mps 580 mmHg 74%
    13:00 +12°C° 0 mm 3 mps 579 mmHg 76%
    14:00 +12°C° 1 mm 3 mps 579 mmHg 77%
    15:00 +11°C° 1 mm 3 mps 578 mmHg 78%
    16:00 +12°C° 1 mm 2 mps 578 mmHg 79%
    17:00 +10°C° 1 mm 2 mps 577 mmHg 82%
    18:00 +10°C° 1 mm 2 mps 576 mmHg 84%
    19:00 +10°C° 1 mm 1 mps 576 mmHg 87%
    20:00 +9°C° 0.7 mm 1 mps 575 mmHg 89%
    21:00 +8°C° 0.7 mm 1 mps 574 mmHg 92%
    22:00 +6°C° 0.7 mm 1 mps 574 mmHg 94%
    23:00 +6°C° 0.4 mm 1 mps 573 mmHg 94%

    Tomorrow, 29 June, Thursday

    Time Temperature Precipitation Wind Pressure Humidity
    00:00 +6°C° 0.4 mm 1 mps 573 mmHg 95%
    01:00 +6°C° 0.4 mm 1 mps 573 mmHg 95%
    02:00 +5°C° 0.4 mm 1 mps 573 mmHg 96%
    03:00 +5°C° 0.4 mm 1 mps 572 mmHg 96%
    04:00 +3°C° 0.4 mm 0 mps 572 mmHg 96%
    05:00 +4°C° 0.7 mm 0 mps 573 mmHg 94%
    06:00 +5°C° 0.7 mm 0 mps 574 mmHg 92%
    07:00 +6°C° 0.7 mm 0 mps 574 mmHg 89%
    08:00 +8°C° 0.8 mm 1 mps 575 mmHg 86%
    09:00 +9°C° 0.8 mm 1 mps 576 mmHg 82%
    10:00 +9°C° 0.8 mm 1 mps 576 mmHg 78%
    11:00 +10°C° 0.7 mm 1 mps 577 mmHg 77%
    12:00 +10°C° 0.7 mm 2 mps 577 mmHg 76%
    13:00 +10°C° 0.7 mm 2 mps 577 mmHg 76%
    14:00 +10°C° 0.8 mm 2 mps 577 mmHg 75%
    15:00 +10°C° 0.8 mm 2 mps 577 mmHg 73%
    16:00 +10°C° 0.8 mm 3 mps 578 mmHg 72%
    17:00 +9°C° 0.6 mm 2 mps 577 mmHg 77%
    18:00 +8°C° 0.6 mm 2 mps 577 mmHg 82%
    19:00 +7°C° 0.6 mm 2 mps 577 mmHg 87%
    20:00 +7°C° 0.5 mm 1 mps 576 mmHg 90%
    21:00 +5°C° 0.5 mm 1 mps 576 mmHg 93%
    22:00 +4°C° 0.5 mm 1 mps 576 mmHg 97%
    23:00 +4°C° 0.9 mm 1 mps 576 mmHg 97%

    Day after tomorrow, 30 June, Friday

    Time Temperature Precipitation Wind Pressure Humidity
    00:00 +4°C° 0.9 mm 1 mps 576 mmHg 97%
    01:00 +3°C° 0.9 mm 1 mps 576 mmHg 97%
    02:00 +3°C° 0.9 mm 1 mps 576 mmHg 97%
    03:00 +2°C° 0.9 mm 0 mps 576 mmHg 96%
    04:00 +2°C° 0.9 mm 0 mps 576 mmHg 96%
    05:00 +4°C° 0.2 mm 1 mps 577 mmHg 94%
    06:00 +5°C° 0.2 mm 1 mps 578 mmHg 92%
    07:00 +6°C° 0.2 mm 1 mps 578 mmHg 89%
    08:00 +7°C° 0.3 mm 1 mps 579 mmHg 84%
    09:00 +7°C° 0.3 mm 2 mps 580 mmHg 78%
    10:00 +8°C° 0.3 mm 2 mps 580 mmHg 72%
    11:00 +8°C° 0.5 mm 2 mps 581 mmHg 71%
    12:00 +8°C° 0.5 mm 3 mps 581 mmHg 70%
    13:00 +9°C° 0.5 mm 3 mps 581 mmHg 68%
    14:00 +8°C° 0.4 mm 3 mps 581 mmHg 68%
    15:00 +8°C° 0.4 mm 2 mps 581 mmHg 68%
    16:00 +8°C° 0.4 mm 2 mps 581 mmHg 68%
    17:00 +7°C° 0.2 mm 2 mps 580 mmHg 72%
    18:00 +6°C° 0.2 mm 2 mps 580 mmHg 77%
    19:00 +6°C° 0.2 mm 1 mps 580 mmHg 81%
    20:00 +5°C° 0.1 mm 1 mps 579 mmHg 86%
    21:00 +3°C° 0.1 mm 1 mps 578 mmHg 90%
    22:00 +1°C° 0.1 mm 1 mps 578 mmHg 95%
    23:00 +1°C° 0 mm 1 mps 578 mmHg 95%

    1 July, Saturday

    Time Temperature Precipitation Wind Pressure Humidity
    00:00 +1°C° 0 mm 1 mps 578 mmHg 94%
    01:00 +1°C° 0 mm 1 mps 577 mmHg 94%
    02:00 0°C° 0 mm 1 mps 577 mmHg 93%
    03:00 0°C° 0 mm 1 mps 578 mmHg 93%
    04:00 0°C° 0 mm 1 mps 578 mmHg 92%
    05:00 +2°C° 0 mm 1 mps 579 mmHg 86%
    06:00 +4°C° 0 mm 1 mps 580 mmHg 79%
    07:00 +6°C° 0 mm 1 mps 581 mmHg 73%
    08:00 +7°C° 0 mm 1 mps 582 mmHg 66%
    09:00 +9°C° 0 mm 1 mps 582 mmHg 59%
    10:00 +11°C° 0 mm 1 mps 583 mmHg 52%
    11:00 +11°C° 0.2 mm 1 mps 583 mmHg 53%
    12:00 +12°C° 0.2 mm 2 mps 583 mmHg 54%
    13:00 +12°C° 0.2 mm 2 mps 584 mmHg 55%
    14:00 +12°C° 0.4 mm 2 mps 583 mmHg 60%
    15:00 +10°C° 0.4 mm 2 mps 583 mmHg 64%
    16:00 +10°C° 0.4 mm 2 mps 583 mmHg 68%
    17:00 +8°C° 0.7 mm 2 mps 583 mmHg 75%
    18:00 +8°C° 0.7 mm 1 mps 582 mmHg 81%
    19:00 +7°C° 0.7 mm 1 mps 582 mmHg 87%
    20:00 +6°C° 0.4 mm 1 mps 581 mmHg 90%
    21:00 +4°C° 0.4 mm 1 mps 581 mmHg 94%
    22:00 +3°C° 0.4 mm 1 mps 580 mmHg 97%
    23:00 +3°C° 0 mm 1 mps 580 mmHg 96%

    2 July, Sunday

    Time Temperature Precipitation Wind Pressure Humidity
    00:00 +3°C° 0 mm 1 mps 580 mmHg 96%
    01:00 +3°C° 0 mm 1 mps 581 mmHg 95%
    02:00 +3°C° 0.1 mm 1 mps 581 mmHg 95%
    03:00 +2°C° 0.1 mm 2 mps 581 mmHg 94%
    04:00 +2°C° 0.1 mm 2 mps 581 mmHg 93%
    05:00 +3°C° 0.2 mm 2 mps 582 mmHg 91%
    06:00 +4°C° 0.2 mm 2 mps 582 mmHg 88%
    07:00 +5°C° 0.2 mm 2 mps 583 mmHg 85%
    08:00 +6°C° 0.2 mm 2 mps 584 mmHg 78%
    09:00 +7°C° 0.2 mm 2 mps 585 mmHg 71%
    10:00 +9°C° 0.2 mm 2 mps 586 mmHg 64%
    11:00 +9°C° 0.2 mm 2 mps 586 mmHg 63%
    12:00 +10°C° 0.2 mm 2 mps 586 mmHg 61%
    13:00 +12°C° 0.2 mm 2 mps 587 mmHg 59%
    14:00 +12°C° 0.1 mm 2 mps 587 mmHg 59%
    15:00 +12°C° 0.1 mm 2 mps 587 mmHg 58%
    16:00 +12°C° 0.1 mm 2 mps 587 mmHg 58%
    17:00 +10°C° 0 mm 2 mps 587 mmHg 64%
    18:00 +9°C° 0 mm 2 mps 586 mmHg 70%
    19:00 +8°C° 0 mm 2 mps 586 mmHg 76%
    20:00 +6°C° 0 mm 2 mps 586 mmHg 80%
    21:00 +5°C° 0 mm 2 mps 585 mmHg 84%
    22:00 +3°C° 0 mm 2 mps 585 mmHg 89%
    23:00 +3°C° 0 mm 2 mps 585 mmHg 89%

    3 July, Monday

    Time Temperature Precipitation Wind Pressure Humidity
    00:00 +2°C° 0 mm 2 mps 584 mmHg 89%
    01:00 +2°C° 0 mm 2 mps 584 mmHg 89%
    02:00 +2°C° 0 mm 2 mps 584 mmHg 89%
    03:00 +1°C° 0 mm 2 mps 584 mmHg 89%
    04:00 +1°C° 0 mm 2 mps 584 mmHg 89%
    05:00 +3°C° 0 mm 2 mps 585 mmHg 84%
    06:00 +5°C° 0 mm 1 mps 585 mmHg 79%
    07:00 +7°C° 0 mm 1 mps 586 mmHg 74%
    08:00 +9°C° 0 mm 1 mps 587 mmHg 67%
    09:00 +11°C° 0 mm 1 mps 588 mmHg 60%
    10:00 +14°C° 0 mm 1 mps 589 mmHg 52%
    11:00 +14°C° 0 mm 1 mps 589 mmHg 50%
    12:00 +15°C° 0 mm 1 mps 590 mmHg 48%
    13:00 +16°C° 0 mm 2 mps 590 mmHg 46%
    14:00 +15°C° 0.1 mm 2 mps 589 mmHg 49%
    15:00 +15°C° 0.1 mm 2 mps 589 mmHg 51%
    16:00 +15°C° 0.1 mm 2 mps 589 mmHg 54%
    17:00 +13°C° 0.1 mm 2 mps 588 mmHg 63%
    18:00 +12°C° 0.1 mm 2 mps 588 mmHg 72%
    19:00 +11°C° 0.1 mm 1 mps 587 mmHg 81%
    20:00 +9°C° 0.1 mm 1 mps 587 mmHg 86%
    21:00 +7°C° 0.1 mm 1 mps 586 mmHg 91%
    22:00 +5°C° 0.1 mm 1 mps 585 mmHg 96%
    23:00 +5°C° 0 mm 1 mps 585 mmHg 95%
    Show more